User: anonymous   Login
Location: Kitchener
(43.2612°N, 80.5078°W)
Time: 20:23:35
(UTC+02:00)
Language:

Iridium 57 - Orbit

View from above orbital plane
View from above orbital plane
View from above satellite
View from above satellite

Ground track
Ground track

The orbit data is extracted from the following two-line orbital elements,

1 25273U 98019B   17266.45581947  .00000087  00000-0  23840-4 0  9997
2 25273  86.3942 246.2139 0002286  91.9072 268.2385 14.34278196 20153
Epoch (UTC): 23 September 2017 10:56:22
Eccentricity: 0.0002286
inclination: 86.3942°
perigee height: 776 km
apogee height: 779 km
right ascension of ascending node: 246.2139°
argument of perigee: 91.9072°
revolutions per day: 14.34278196
mean anomaly at epoch: 268.2385°
orbit number at epoch: 2015

The dashed part of the orbit path shows where the satellite is in the earth's shadow,  

DLR